Showing default

SARAMAGO, 100000

Orbit data source: Space-Track

SARAMAGO, 100000 is a Portuguese payload satellite in SSO that was launched on Mon, 30 Mar 2026 UTC launched from the Air Force Western Test Range (AFWTR). Payload-class satellites include a variety of spacecraft equipped with specific instruments for various scientific and technological missions. These include communications satellites like Starlink; space stations such as the ISS; scientific satellites like the Hubble; Earth observation satellites from companies like Planet Labs, Umbra, and HawkEye 360; GPS; miniature CubeSats for education and research; and military/defense satellites.

Loading next visibility...
Identifier
100000, 2026-067CY
Orbit
SSO
Country
Flag of PTPT / POR
Related business
Manufacturer
LUSO
Mission
Operational spacecraft
Bus & Motor
CUBESAT 8U, Unknown motor
Mass
~15 kg wet, ~15 kg dry
Launch date (UTC)
2026-03-30 (5 months ago)
Launch vehicle
Unknown
Launch site
Air Force Western Test Range (AFWTR)
Object type
Payload
Rocket body
Debris
Shape & HBR
BOX, 14.5 m
Radar Cross Section
Medium (>0.1 m² and <1 m²)

Expand to show TLE details & history
Last TLE update: 10 hours ago

TLE from 10 hours ago
0 SARAMAGO
1 A0000U 26067CY  26228.60977792  .00005485  00000-0  25099-3 0  9998
2 A0000  97.4628 186.4771 0008858 143.4506 216.7336 15.20900472 20880
Epoch: 2026-08-16T14:38Z
TLE epoch observation values (Epoch: 2026-08-16T14:38:04.812Z)
Latitude
0.00004°
Longitude
1.95321°
Altitude
511.101 km
Speed
7.606 km/s
True Right ascension
12h 25m 54s
True Declination
0° 00' 00"
Sunlit
Object was in daylight at epoch
Visualization orbit readout
Latitude
Unknown
Longitude
Unknown
Altitude
Unknown
Speed
Unknown
Apparent Right ascension
Unknown
Apparent Declination
Unknown
Sunlit
N/A
Visualization observer readout
Local Sidereal Time
15:34:31
Azimuth
Unknown
Elevation
Unknown
Doppler factor
Unknown
Orbital elements
Apogee altitude
506.183 km
Perigee altitude
493.998 km
Semi-major axis
6,878.227 km
Eccentricity
0.00089
Inclination
97.4628°
RAAN
186.4771°
Arg. of periapsis
143.4506°
True anomaly
216.67294°
Mean anomaly
216.7336°
Eccentric anomaly
216.70327°
Mean motion
3.80477 °/min
Orbital period
94.62 mins
BSTAR
0.00025099
Loading maneuver chart data...
Computing Atmospheric mass density...
Loading historical data...
Loading historical data...
Loading historical data...
Loading historical data...
Loading historical data...
Loading historical data...
Loading historical data...

Documentation

Showing up to 5 results
|